^^
Saratoga-Weather Station Historical Data
Daily Summary for April 10, 2021 Units:  English    Metric   Both
Daily Weekly Monthly Yearly Custom
  High: Low: Average:
Temperature: 56.5 °F 47.7 °F 49.8 °F
Dew Point: 47.1 °F 44.1 °F 46 °F
Humidity: 94% 63% 87%
Wind Speed: 11mph 0mph 1.3mph
Wind Gust: 14mph - -
Wind- - SW
Pressure: 29.9 in 29.8 in -
Precipitation: 0.14 in    
Historical Graphs
 
 
Tabular Data for April 10, 2021
Time Temperature Dew Point Pressure Wind Wind Speed Wind Gust Humidity Rainfall Rate (Hourly) solar
00:03 56.5 °F 44.1 °F 29.8 in NE 0.9 mph 4 mph 63% 0 in 0 W/m2
00:08 56.5 °F 44.1 °F 29.8 in West 6 mph 11 mph 63% 0 in 0 W/m2
00:13 56.3 °F 44.2 °F 29.8 in NNE 2.9 mph 4 mph 64% 0 in 0 W/m2
00:18 56.1 °F 44.6 °F 29.8 in WNW 6 mph 14 mph 65% 0 in 0 W/m2
00:23 56.1 °F 44.6 °F 29.8 in NNE 2.9 mph 6 mph 65% 0 in 0 W/m2
00:28 55.9 °F 44.4 °F 29.8 in North 2 mph 14 mph 65% 0 in 0 W/m2
00:33 55.9 °F 44.8 °F 29.8 in East 2.9 mph 7 mph 66% 0 in 0 W/m2
00:38 55.8 °F 44.6 °F 29.8 in NE 6.9 mph 7 mph 66% 0 in 0 W/m2
00:43 55.8 °F 44.6 °F 29.8 in ENE 0.9 mph 4 mph 66% 0 in 0 W/m2
00:48 55.6 °F 44.4 °F 29.8 in SW 0.9 mph 4 mph 66% 0 in 0 W/m2
00:53 55.6 °F 44.8 °F 29.8 in WSW 2 mph 11 mph 67% 0 in 0 W/m2
00:58 55.4 °F 44.6 °F 29.8 in WNW 2 mph 7 mph 67% 0 in 0 W/m2
01:03 55.4 °F 44.6 °F 29.8 in NNE 4 mph 8 mph 67% 0 in 0 W/m2
01:08 55.4 °F 44.6 °F 29.8 in NW 2.9 mph 3 mph 67% 0 in 0 W/m2
01:13 55.4 °F 44.6 °F 29.9 in WNW 4.9 mph 10 mph 67% 0 in 0 W/m2
01:18 55.2 °F 44.8 °F 29.9 in WSW 2.9 mph 7 mph 68% 0 in 0 W/m2
01:23 54.9 °F 45.3 °F 29.9 in West 2 mph 11 mph 70% 0 in 0 W/m2
01:28 54.1 °F 45.7 °F 29.9 in West 6.9 mph 8 mph 73% 0 in 0 W/m2
01:33 53.8 °F 46 °F 29.9 in West 2.9 mph 9 mph 75% 0 in 0 W/m2
01:38 53.2 °F 45.9 °F 29.9 in WNW 4 mph 5 mph 76% 0 in 0 W/m2
01:43 53.1 °F 46 °F 29.9 in WNW 2.9 mph 4 mph 77% 0 in 0 W/m2
01:48 52.5 °F 46.2 °F 29.9 in NW 0.9 mph 5 mph 79% 0 in 0 W/m2
01:53 52.3 °F 46.4 °F 29.9 in NW 0.9 mph 4 mph 80% 0 in 0 W/m2
01:58 52.2 °F 46.2 °F 29.9 in West 2.9 mph 4 mph 80% 0 in 0 W/m2
02:03 52 °F 46.4 °F 29.9 in West 2 mph 4 mph 81% 0 in 0 W/m2
02:08 52 °F 46.4 °F 29.9 in WNW 2 mph 3 mph 81% 0 in 0 W/m2
02:13 51.8 °F 46.2 °F 29.9 in Calm   2 mph 81% 0 in 0 W/m2
02:18 51.6 °F 46.2 °F 29.9 in NW 4 mph 5 mph 82% 0 in 0 W/m2
02:23 51.4 °F 46.4 °F 29.9 in WNW 0.9 mph 3 mph 83% 0 in 0 W/m2
02:28 51.3 °F 46.6 °F 29.9 in Calm     84% 0 in 0 W/m2
02:33 51.3 °F 46.9 °F 29.9 in West 2.9 mph 3 mph 85% 0 in 0 W/m2
02:38 50.9 °F 46.6 °F 29.9 in WNW 0.9 mph 2 mph 85% 0 in 0 W/m2
02:43 50.7 °F 46.8 °F 29.9 in West 2.9 mph 3 mph 86% 0 in 0 W/m2
02:48 50.5 °F 46.8 °F 29.9 in West 0.9 mph 2 mph 87% 0 in 0 W/m2
02:53 50.4 °F 46.6 °F 29.9 in Calm   4 mph 87% 0 in 0 W/m2
02:58 50.4 °F 46.9 °F 29.9 in Calm   3 mph 88% 0 in 0 W/m2
03:03 50.2 °F 46.8 °F 29.9 in Calm   1 mph 88% 0 in 0 W/m2
03:08 50.2 °F 46.8 °F 29.9 in West 2 mph 2 mph 88% 0 in 0 W/m2
03:13 50 °F 46.9 °F 29.9 in West 2 mph 2 mph 89% 0.01 in 0 W/m2
03:19 49.8 °F 46.8 °F 29.9 in Calm   1 mph 89% 0.01 in 0 W/m2
03:24 49.8 °F 46.8 °F 29.9 in Calm   1 mph 89% 0.02 in 0 W/m2
03:29 49.6 °F 46.8 °F 29.9 in Calm     90% 0.02 in 0 W/m2
03:34 49.6 °F 46.8 °F 29.9 in Calm     90% 0.02 in 0 W/m2
03:44 49.5 °F 46.6 °F 29.9 in West 2 mph 4 mph 90% 0.02 in 0 W/m2
03:49 49.3 °F 46.8 °F 29.9 in West 0.9 mph 3 mph 91% 0.03 in 0 W/m2
03:54 49.3 °F 46.8 °F 29.9 in Calm   4 mph 91% 0.03 in 0 W/m2
03:59 49.1 °F 46.6 °F 29.9 in WSW 0.9 mph 4 mph 91% 0.03 in 0 W/m2
04:04 48.9 °F 46.4 °F 29.9 in WSW 0.9 mph 3 mph 91% 0.03 in 0 W/m2
04:09 48.9 °F 46.4 °F 29.9 in Calm   4 mph 91% 0.03 in 0 W/m2
04:14 48.7 °F 46.6 °F 29.9 in Calm   1 mph 92% 0.02 in 0 W/m2
04:19 48.7 °F 46.6 °F 29.9 in WSW 0.9 mph 2 mph 92% 0.02 in 0 W/m2
04:24 48.7 °F 46.6 °F 29.9 in WNW 0.9 mph 3 mph 92% 0.02 in 0 W/m2
04:29 48.6 °F 46.4 °F 29.9 in Calm   1 mph 92% 0.02 in 0 W/m2
04:34 48.6 °F 46.4 °F 29.9 in Calm     92% 0.02 in 0 W/m2
04:39 48.6 °F 46.4 °F 29.9 in Calm   1 mph 92% 0.02 in 0 W/m2
04:44 48.4 °F 46.2 °F 29.9 in Calm     92% 0.02 in 0 W/m2
04:49 48.4 °F 46.2 °F 29.9 in Calm     92% 0.01 in 0 W/m2
04:54 48.4 °F 46.2 °F 29.9 in Calm     92% 0.01 in 0 W/m2
04:59 48.4 °F 46.4 °F 29.9 in Calm     93% 0.01 in 0 W/m2
05:04 48.4 °F 46.4 °F 29.9 in Calm   1 mph 93% 0.01 in 0 W/m2
05:09 48.4 °F 46.4 °F 29.9 in Calm   1 mph 93% 0.01 in 0 W/m2
05:14 48.4 °F 46.4 °F 29.9 in West 0.9 mph 1 mph 93% 0.01 in 0 W/m2
05:19 48.4 °F 46.4 °F 29.9 in Calm   2 mph 93% 0.01 in 0 W/m2
05:24 48.4 °F 46.4 °F 29.9 in Calm   1 mph 93% 0.01 in 0 W/m2
05:29 48.4 °F 46.4 °F 29.9 in Calm   1 mph 93% 0.01 in 0 W/m2
05:34 48.4 °F 46.4 °F 29.9 in Calm     93% 0.01 in 0 W/m2
05:39 48.4 °F 46.4 °F 29.9 in Calm     93% 0 in 0 W/m2
05:44 48.4 °F 46.4 °F 29.9 in Calm   1 mph 93% 0 in 0 W/m2
05:49 48.4 °F 46.4 °F 29.9 in Calm   1 mph 93% 0 in 0 W/m2
05:54 48.4 °F 46.4 °F 29.9 in Calm     93% 0 in 0 W/m2
05:59 48.4 °F 46.4 °F 29.9 in Calm   1 mph 93% 0 in 0 W/m2
06:04 48.4 °F 46.4 °F 29.9 in Calm     93% 0 in 0 W/m2
06:09 48.4 °F 46.4 °F 29.9 in East 2.9 mph 3 mph 93% 0 in 0 W/m2
06:14 48.4 °F 46.4 °F 29.9 in Calm   1 mph 93% 0.01 in 0 W/m2
06:19 48.4 °F 46.4 °F 29.9 in East 3 mph 3 mph 93% 0.01 in 0 W/m2
06:24 48.4 °F 46.4 °F 29.9 in Calm   1 mph 93% 0.01 in 0 W/m2
06:29 48.4 °F 46.4 °F 29.9 in WNW 2 mph 3 mph 93% 0.01 in 0 W/m2
06:34 48.4 °F 46.8 °F 29.9 in Calm     94% 0.01 in 0 W/m2
06:39 48.4 °F 46.8 °F 29.9 in Calm   3 mph 94% 0.01 in 0 W/m2
06:44 48.4 °F 46.8 °F 29.9 in Calm   1 mph 94% 0.01 in 0 W/m2
06:49 48.4 °F 46.8 °F 29.9 in WNW 2 mph 3 mph 94% 0.01 in 0 W/m2
06:54 48.6 °F 46.9 °F 29.9 in Calm     94% 0.02 in 0 W/m2
06:59 48.6 °F 46.9 °F 29.9 in Calm   3 mph 94% 0.02 in 0 W/m2
07:04 48.6 °F 46.6 °F 29.9 in Calm     93% 0.02 in 0 W/m2
07:09 48.6 °F 46.6 °F 29.9 in Calm     93% 0.02 in 0 W/m2
07:14 48.6 °F 46.6 °F 29.9 in Calm   2 mph 93% 0.02 in 0 W/m2
07:19 48.7 °F 46.8 °F 29.9 in NE 0.9 mph 2 mph 93% 0.02 in 7 W/m2
07:24 48.7 °F 46.8 °F 29.9 in Calm   2 mph 93% 0.02 in 7 W/m2
07:29 48.7 °F 46.8 °F 29.9 in NE 0.9 mph 3 mph 93% 0.02 in 14 W/m2
07:34 48.7 °F 46.8 °F 29.9 in Calm   3 mph 93% 0.02 in 14 W/m2
07:39 48.7 °F 46.8 °F 29.9 in Calm   2 mph 93% 0.02 in 9 W/m2
07:44 48.7 °F 46.8 °F 29.9 in Calm   1 mph 93% 0.02 in 7 W/m2
07:49 48.9 °F 46.9 °F 29.9 in NNE 0.9 mph 2 mph 93% 0.02 in 5 W/m2
07:54 48.9 °F 46.9 °F 29.9 in NW 0.9 mph 3 mph 93% 0.02 in 0 W/m2
07:59 48.9 °F 46.9 °F 29.9 in Calm     93% 0.02 in 9 W/m2
08:04 48.9 °F 46.9 °F 29.9 in NNW 0.9 mph 3 mph 93% 0.02 in 5 W/m2
08:09 48.9 °F 46.9 °F 29.9 in Calm   1 mph 93% 0.02 in 5 W/m2
08:14 48.9 °F 46.9 °F 29.9 in Calm   3 mph 93% 0.02 in 5 W/m2
08:19 48.9 °F 46.9 °F 29.9 in Calm   1 mph 93% 0.02 in 5 W/m2
08:24 48.7 °F 46.8 °F 29.9 in Calm   2 mph 93% 0.03 in 5 W/m2
08:29 48.7 °F 46.8 °F 29.9 in West 2 mph 2 mph 93% 0.03 in 5 W/m2
08:34 48.7 °F 46.8 °F 29.9 in Calm     93% 0.04 in 0 W/m2
08:39 48.7 °F 46.8 °F 29.9 in NW 2 mph 2 mph 93% 0.05 in 0 W/m2
08:44 48.6 °F 46.6 °F 29.9 in Calm     93% 0.05 in 0 W/m2
08:49 48.6 °F 46.6 °F 29.9 in NNE 0.9 mph 2 mph 93% 0.06 in 5 W/m2
08:54 48.6 °F 46.6 °F 29.9 in North 0.9 mph 2 mph 93% 0.06 in 5 W/m2
08:59 48.6 °F 46.6 °F 29.9 in Calm   6 mph 93% 0.06 in 9 W/m2
09:04 48.6 °F 46.6 °F 29.9 in NW 11 mph 11 mph 93% 0.06 in 19 W/m2
09:09 48.6 °F 46.6 °F 29.9 in NW 4 mph 8 mph 93% 0.06 in 28 W/m2
09:14 48.6 °F 46.6 °F 29.9 in NW 2.9 mph 3 mph 93% 0.06 in 40 W/m2
09:19 48.4 °F 46.2 °F 29.9 in North 2 mph 5 mph 92% 0.05 in 54 W/m2
09:24 48 °F 45.9 °F 29.9 in SW 2 mph 3 mph 92% 0.04 in 62 W/m2
09:29 47.8 °F 45.3 °F 29.9 in Calm   2 mph 91% 0.05 in 51 W/m2
09:34 47.8 °F 45.7 °F 29.9 in NNE 0.9 mph 4 mph 92% 0.03 in 56 W/m2
09:39 47.8 °F 45.7 °F 29.9 in NE 0.9 mph 3 mph 92% 0.02 in 62 W/m2
09:45 47.7 °F 45.1 °F 29.9 in NW 2 mph 3 mph 91% 0.02 in 69 W/m2
09:50 47.7 °F 45.1 °F 29.9 in WNW 0.9 mph 3 mph 91% 0.02 in 53 W/m2
09:55 47.7 °F 45.1 °F 29.9 in NNW 2 mph 3 mph 91% 0.02 in 46 W/m2
10:00 47.7 °F 45.1 °F 29.9 in NW 0.9 mph 4 mph 91% 0.01 in 40 W/m2
10:05 47.7 °F 45 °F 29.9 in NNW 2 mph 2 mph 90% 0.01 in 46 W/m2
10:10 47.7 °F 45 °F 29.9 in North 2.9 mph 3 mph 90% 0.01 in 46 W/m2
10:15 47.7 °F 45.1 °F 29.9 in NE 4 mph 4 mph 91% 0.01 in 49 W/m2
10:20 47.7 °F 45 °F 29.9 in NE 2 mph 5 mph 90% 0.01 in 46 W/m2
10:25 47.7 °F 45 °F 29.9 in Calm   2 mph 90% 0.01 in 49 W/m2
10:30 47.7 °F 45 °F 29.9 in North 0.9 mph 5 mph 90% 0 in 49 W/m2
10:35 47.8 °F 45 °F 29.9 in NNE 0.9 mph 4 mph 90% 0 in 54 W/m2
10:40 47.8 °F 45 °F 29.9 in NE 2 mph 4 mph 90% 0 in 54 W/m2
10:45 47.8 °F 45 °F 29.9 in NE 0.9 mph 2 mph 90% 0 in 62 W/m2
10:50 47.8 °F 45 °F 29.9 in ENE 2 mph 3 mph 90% 0 in 74 W/m2
10:55 47.8 °F 45 °F 29.9 in NE 2 mph 3 mph 90% 0 in 79 W/m2
11:00 48 °F 45.1 °F 29.9 in NE 2 mph 3 mph 90% 0 in 88 W/m2
11:05 48 °F 45.1 °F 29.9 in East 2 mph 3 mph 90% 0 in 105 W/m2
11:10 48 °F 45.1 °F 29.9 in North 2 mph 3 mph 90% 0 in 116 W/m2
11:15 48.4 °F 45.5 °F 29.9 in East 2 mph 4 mph 90% 0 in 153 W/m2
11:20 48.6 °F 45.7 °F 29.9 in Calm   2 mph 90% 0 in 183 W/m2
11:25 48.7 °F 45.9 °F 29.9 in NW 0.9 mph 4 mph 90% 0 in 135 W/m2
11:30 48.9 °F 46 °F 29.9 in NW 0.9 mph 2 mph 90% 0 in 86 W/m2
11:35 48.9 °F 46 °F 29.9 in North 2 mph 3 mph 90% 0 in 102 W/m2
11:40 48.9 °F 45.9 °F 29.9 in Calm   3 mph 89% 0 in 100 W/m2
11:45 49.1 °F 46.2 °F 29.9 in NNW 0.9 mph 2 mph 90% 0 in 91 W/m2
11:50 49.3 °F 46.4 °F 29.9 in Calm   3 mph 90% 0 in 146 W/m2
11:55 49.5 °F 46.6 °F 29.9 in Calm   3 mph 90% 0 in 141 W/m2
12:00 49.6 °F 46.8 °F 29.9 in North 0.9 mph 2 mph 90% 0 in 137 W/m2
12:05 49.6 °F 46.6 °F 29.9 in Calm   1 mph 89% 0 in 139 W/m2
12:10 49.8 °F 46.8 °F 29.9 in NE 2 mph 3 mph 89% 0 in 165 W/m2
12:15 49.8 °F 46.8 °F 29.9 in Calm   3 mph 89% 0 in 156 W/m2
12:20 50 °F 46.9 °F 29.9 in Calm   3 mph 89% 0 in 163 W/m2
12:25 50.2 °F 47.1 °F 29.9 in NNW 2.9 mph 3 mph 89% 0 in 121 W/m2
12:30 50.2 °F 47.1 °F 29.9 in Calm   3 mph 89% 0 in 111 W/m2
12:35 50.2 °F 47.1 °F 29.9 in Calm   3 mph 89% 0 in 134 W/m2
12:40 50.2 °F 46.8 °F 29.9 in WSW 4.9 mph 11 mph 88% 0 in 139 W/m2
12:45 50.2 °F 46.8 °F 29.9 in NW 2 mph 3 mph 88% 0 in 139 W/m2
Juneau County Weather
Compliments of Weather Underground - 4 mb